Hourly Data Report for March 16, 2015

MIRAMICHI RCS
NEW BRUNSWICK

47°00'34.000" N
65°27'54.000" W
33.00 m
8100989
71744
ACQ

Download Data

Hourly Data (March 2015)
Hourly Data Report for March 16, 2015
TIME Temp Definition
°C
Dew Point Definition
°C
Rel Hum Definition
%
Wind Dir Definition
10's deg

Wind Spd Definition
km/h
Visibility Definition
km
Stn Press Definition
kPa
Hmdx Definition


Wind Chill Definition


Weather Definition


00:00 -6.0 -9.9 74 3 28   100.39   -14 LegendNANA
01:00 -5.8 -12.3 60 3 26   100.37   -14 LegendNANA
02:00 -6.1 -12.0 63 3 27   100.36   -14 LegendNANA
03:00 -6.3 -12.2 63 3 26   100.31   -14 LegendNANA
04:00 -6.4 -12.6 61 1 25   100.25   -14 LegendNANA
05:00 -6.7 -13.2 60 2 21   100.31   -14 LegendNANA
06:00 -7.6 -13.9 61 2 17   100.39   -14 LegendNANA
07:00 -8.1 -14.3 61 2 13   100.45   -14 LegendNANA
08:00 -7.7 -14.2 60 2 13   100.44   -13 LegendNANA
09:00 -6.9 -14.1 56 2 15   100.45   -13 LegendNANA
10:00 -5.3 -13.9 51 3 21   100.46   -12 LegendNANA
11:00 -3.8 -14.0 45 3 17   100.43   -10 LegendNANA
12:00 -2.6 -14.4 40 3 17   100.39   -8 LegendNANA
13:00 -1.5 -15.6 33 36 14   100.31   -6 LegendNANA
14:00 -0.8 -15.3 32 2 18   100.23   -6 LegendNANA
15:00 -3.0 -10.2 58 9 18   100.23   -9 LegendNANA
16:00 -4.0 -10.2 62 7 22   100.25   -11 LegendNANA
17:00 -4.6 -10.9 61 7 17   100.27   -10 LegendNANA
18:00 -7.1 -12.8 64 9 11   100.32   -12 LegendNANA
19:00 -8.0 -12.1 73 9 7   100.35   -12 LegendNANA
20:00 -8.8 -13.0 71 7 7   100.33   -13 LegendNANA
21:00 -10.1 -14.5 70 5 5   100.35   -13 LegendNANA
22:00 -13.7 -16.0 83 28 6   100.36   -18 LegendNANA
23:00 -12.1 -14.2 84 29 8   100.40   -17 LegendNANA

Notes on Data Quality.

Legend

  • E = Estimated
  • M = Missing
  • NA = Not Available*
  • [empty] = Indicates an unobserved value
Date modified: